Time,TemperatureF,DewpointF,PressureIn,WindDirection,WindDirectionDegrees,WindSpeedMPH,WindSpeedGustMPH,Humidity,HourlyPrecipIn,Conditions,Clouds,dailyrainin,SoftwareType,DateUTC
2013-02-28 00:00:00,44.1,34.2,29.62,NNE,23,0.0,0.0,68,0.00,,,0.01,WUHU216HW,2013-02-28 05:00:00,
2013-02-28 00:01:00,44.1,34.2,29.62,NNE,23,0.0,0.0,68,0.00,,,0.00,WUHU216HW,2013-02-28 05:01:00,
2013-02-28 00:06:00,44.1,34.2,29.62,NNE,23,0.0,0.0,68,0.00,,,0.00,WUHU216HW,2013-02-28 05:06:00,
2013-02-28 00:11:00,44.1,34.6,29.62,NNE,23,0.0,0.0,69,0.00,,,0.00,WUHU216HW,2013-02-28 05:11:00,
2013-02-28 00:16:00,44.3,34.7,29.62,NNE,23,0.0,0.0,69,0.00,,,0.00,WUHU216HW,2013-02-28 05:16:00,
2013-02-28 00:21:00,44.3,34.7,29.62,NNE,23,0.2,0.2,69,0.00,,,0.00,WUHU216HW,2013-02-28 05:21:00,
2013-02-28 00:26:00,44.3,35.1,29.63,NNE,23,0.7,0.7,70,0.00,,,0.00,WUHU216HW,2013-02-28 05:26:00,
2013-02-28 00:31:00,43.9,34.8,29.63,NNE,23,0.2,0.9,70,0.00,,,0.00,WUHU216HW,2013-02-28 05:31:00,
2013-02-28 00:36:00,43.9,34.8,29.63,NNE,23,0.0,0.9,70,0.00,,,0.00,WUHU216HW,2013-02-28 05:36:00,
2013-02-28 00:41:00,43.9,35.2,29.62,NNE,23,0.0,0.7,71,0.00,,,0.00,WUHU216HW,2013-02-28 05:41:00,
2013-02-28 00:46:00,43.9,35.2,29.62,NNE,23,0.0,0.0,71,0.00,,,0.00,WUHU216HW,2013-02-28 05:46:00,
2013-02-28 00:51:00,44.1,35.3,29.62,NNE,23,0.0,0.0,71,0.00,,,0.00,WUHU216HW,2013-02-28 05:51:00,
2013-02-28 00:56:00,44.3,35.5,29.62,NNE,23,0.0,0.0,71,0.00,,,0.00,WUHU216HW,2013-02-28 05:56:00,
2013-02-28 01:02:00,44.3,35.5,29.62,NNE,23,0.0,0.0,71,0.00,,,0.00,WUHU216HW,2013-02-28 06:02:00,
2013-02-28 01:07:00,44.5,35.3,29.62,NNE,23,0.0,0.0,70,0.00,,,0.00,WUHU216HW,2013-02-28 06:07:00,
2013-02-28 01:12:00,44.5,35.3,29.62,NNE,23,0.0,0.0,70,0.00,,,0.00,WUHU216HW,2013-02-28 06:12:00,
2013-02-28 01:17:00,44.5,35.3,29.62,NNE,23,0.0,0.0,70,0.00,,,0.00,WUHU216HW,2013-02-28 06:17:00,
2013-02-28 01:22:00,44.5,35.7,29.63,NNE,23,0.0,0.0,71,0.00,,,0.00,WUHU216HW,2013-02-28 06:22:00,
2013-02-28 01:27:00,44.5,35.7,29.63,NNE,23,0.0,0.0,71,0.00,,,0.00,WUHU216HW,2013-02-28 06:27:00,
2013-02-28 01:32:00,44.5,35.7,29.63,NNE,23,0.0,0.0,71,0.00,,,0.00,WUHU216HW,2013-02-28 06:32:00,
2013-02-28 01:37:00,44.6,35.8,29.63,NNE,23,1.8,1.8,71,0.00,,,0.00,WUHU216HW,2013-02-28 06:37:00,
2013-02-28 01:42:00,44.6,36.2,29.63,NE,45,0.0,1.8,72,0.00,,,0.00,WUHU216HW,2013-02-28 06:42:00,
2013-02-28 01:47:00,44.6,36.2,29.62,SSW,203,0.4,0.4,72,0.00,,,0.00,WUHU216HW,2013-02-28 06:47:00,
2013-02-28 01:52:00,44.5,36.0,29.62,ENE,68,0.0,1.6,72,0.00,,,0.00,WUHU216HW,2013-02-28 06:52:00,
2013-02-28 01:57:00,44.5,36.0,29.62,ENE,68,0.0,1.6,72,0.00,,,0.00,WUHU216HW,2013-02-28 06:57:00,
2013-02-28 02:03:00,44.3,36.2,29.62,ENE,68,0.0,0.0,73,0.00,,,0.00,WUHU216HW,2013-02-28 07:03:00,
2013-02-28 02:08:00,44.1,36.0,29.62,ENE,68,0.4,0.4,73,0.00,,,0.00,WUHU216HW,2013-02-28 07:08:00,
2013-02-28 02:13:00,43.9,35.8,29.63,ENE,68,0.0,0.4,73,0.00,,,0.00,WUHU216HW,2013-02-28 07:13:00,
2013-02-28 02:18:00,43.9,36.2,29.62,ENE,68,0.0,0.4,74,0.00,,,0.00,WUHU216HW,2013-02-28 07:18:00,
2013-02-28 02:23:00,43.9,36.2,29.62,SSE,158,0.0,0.0,74,0.00,,,0.00,WUHU216HW,2013-02-28 07:23:00,
2013-02-28 02:28:00,44.1,36.4,29.62,SSE,158,0.0,0.0,74,0.00,,,0.00,WUHU216HW,2013-02-28 07:28:00,
2013-02-28 02:33:00,44.3,36.5,29.62,SSE,158,0.0,0.0,74,0.00,,,0.00,WUHU216HW,2013-02-28 07:33:00,
2013-02-28 02:38:00,44.3,36.5,29.62,SE,135,1.1,2.0,74,0.00,,,0.00,WUHU216HW,2013-02-28 07:38:00,
2013-02-28 02:43:00,44.6,36.8,29.62,SE,135,1.3,2.0,74,0.00,,,0.00,WUHU216HW,2013-02-28 07:43:00,
2013-02-28 02:48:00,44.8,37.0,29.62,ESE,113,0.7,1.3,74,0.00,,,0.00,WUHU216HW,2013-02-28 07:48:00,
2013-02-28 02:53:00,44.8,36.6,29.62,ESE,113,0.4,1.6,73,0.00,,,0.00,WUHU216HW,2013-02-28 07:53:00,
2013-02-28 02:58:00,44.8,36.6,29.62,ESE,113,0.4,1.1,73,0.00,,,0.00,WUHU216HW,2013-02-28 07:58:00,
2013-02-28 03:03:00,44.8,36.6,29.62,NE,45,0.7,1.6,73,0.00,,,0.00,WUHU216HW,2013-02-28 08:03:00,
2013-02-28 03:09:00,44.8,37.0,29.62,West,270,2.5,2.5,74,0.00,,,0.00,WUHU216HW,2013-02-28 08:09:00,
2013-02-28 03:14:00,44.6,36.8,29.61,SSW,203,0.7,2.5,74,0.00,,,0.00,WUHU216HW,2013-02-28 08:14:00,
2013-02-28 03:19:00,44.6,36.8,29.61,SE,135,0.4,2.9,74,0.00,,,0.00,WUHU216HW,2013-02-28 08:19:00,
2013-02-28 03:24:00,44.5,36.6,29.61,SE,135,1.3,2.9,74,0.00,,,0.00,WUHU216HW,2013-02-28 08:24:00,
2013-02-28 03:29:00,44.3,36.5,29.61,SSW,203,1.1,2.5,74,0.00,,,0.00,WUHU216HW,2013-02-28 08:29:00,
2013-02-28 03:34:00,44.1,36.4,29.61,South,180,1.8,2.5,74,0.00,,,0.00,WUHU216HW,2013-02-28 08:34:00,
2013-02-28 03:39:00,44.1,36.4,29.61,SE,135,0.4,1.8,74,0.00,,,0.00,WUHU216HW,2013-02-28 08:39:00,
2013-02-28 03:44:00,43.9,36.2,29.62,ENE,68,0.4,4.3,74,0.00,,,0.00,WUHU216HW,2013-02-28 08:44:00,
2013-02-28 03:49:00,43.9,36.2,29.61,SE,135,1.1,4.3,74,0.00,,,0.00,WUHU216HW,2013-02-28 08:49:00,
2013-02-28 03:54:00,43.7,36.0,29.61,SE,135,1.1,2.2,74,0.00,,,0.00,WUHU216HW,2013-02-28 08:54:00,
2013-02-28 03:59:00,43.7,36.0,29.61,SE,135,0.4,1.8,74,0.00,,,0.00,WUHU216HW,2013-02-28 08:59:00,
2013-02-28 04:04:00,43.7,36.0,29.61,North,0,0.4,1.8,74,0.00,,,0.00,WUHU216HW,2013-02-28 09:04:00,
2013-02-28 04:09:00,43.6,35.8,29.61,SE,135,0.2,1.8,74,0.00,,,0.00,WUHU216HW,2013-02-28 09:09:00,
2013-02-28 04:14:00,43.6,35.8,29.61,South,180,0.0,0.4,74,0.00,,,0.00,WUHU216HW,2013-02-28 09:14:00,
2013-02-28 04:19:00,43.6,35.8,29.62,SSE,158,0.0,0.4,74,0.00,,,0.00,WUHU216HW,2013-02-28 09:19:00,
2013-02-28 04:24:00,43.6,36.2,29.62,SE,135,0.4,0.7,75,0.00,,,0.00,WUHU216HW,2013-02-28 09:24:00,
2013-02-28 04:30:00,43.6,36.2,29.62,SSE,158,0.0,0.7,75,0.00,,,0.00,WUHU216HW,2013-02-28 09:30:00,
2013-02-28 04:35:00,43.6,36.5,29.62,SE,135,2.5,2.5,76,0.00,,,0.00,WUHU216HW,2013-02-28 09:35:00,
2013-02-28 04:40:00,43.4,36.3,29.62,NNE,23,0.0,2.5,76,0.00,,,0.00,WUHU216HW,2013-02-28 09:40:00,
2013-02-28 04:45:00,43.2,36.1,29.62,SE,135,1.6,2.5,76,0.00,,,0.00,WUHU216HW,2013-02-28 09:45:00,
2013-02-28 04:50:00,43.0,36.0,29.62,SE,135,0.7,1.6,76,0.00,,,0.00,WUHU216HW,2013-02-28 09:50:00,
2013-02-28 04:55:00,42.8,35.8,29.62,SE,135,0.0,0.7,76,0.01,,,0.01,WUHU216HW,2013-02-28 09:55:00,
2013-02-28 05:00:00,42.5,35.7,29.62,SE,135,0.0,0.7,77,0.01,,,0.01,WUHU216HW,2013-02-28 10:00:00,
2013-02-28 05:05:00,42.3,35.6,29.63,SE,135,0.0,0.0,77,0.01,,,0.01,WUHU216HW,2013-02-28 10:05:00,
2013-02-28 05:10:00,42.1,35.4,29.63,SE,135,0.0,0.0,77,0.01,,,0.01,WUHU216HW,2013-02-28 10:10:00,
2013-02-28 05:15:00,42.1,35.4,29.63,NE,45,0.0,0.0,77,0.01,,,0.01,WUHU216HW,2013-02-28 10:15:00,
2013-02-28 05:20:00,41.9,35.2,29.63,NE,45,0.0,0.0,77,0.01,,,0.01,WUHU216HW,2013-02-28 10:20:00,
2013-02-28 05:25:00,41.8,35.4,29.63,NE,45,0.0,0.0,78,0.01,,,0.01,WUHU216HW,2013-02-28 10:25:00,
2013-02-28 05:30:00,41.8,35.4,29.63,ESE,113,0.0,0.0,78,0.01,,,0.01,WUHU216HW,2013-02-28 10:30:00,
2013-02-28 05:35:00,41.8,35.4,29.64,ESE,113,0.0,0.9,78,0.01,,,0.01,WUHU216HW,2013-02-28 10:35:00,
2013-02-28 05:40:00,41.9,35.8,29.64,SE,135,0.2,0.9,79,0.01,,,0.01,WUHU216HW,2013-02-28 10:40:00,
2013-02-28 05:45:00,42.1,35.7,29.64,SSE,158,0.2,2.5,78,0.01,,,0.01,WUHU216HW,2013-02-28 10:45:00,
2013-02-28 05:50:00,42.3,35.6,29.64,ENE,68,1.3,2.5,77,0.00,,,0.01,WUHU216HW,2013-02-28 10:50:00,
2013-02-28 05:56:00,42.3,34.9,29.64,SSE,158,1.8,2.5,75,0.00,,,0.01,WUHU216HW,2013-02-28 10:56:00,
2013-02-28 06:01:00,42.3,34.6,29.65,ESE,113,0.4,4.5,74,0.00,,,0.01,WUHU216HW,2013-02-28 11:01:00,
2013-02-28 06:06:00,42.3,34.3,29.64,SE,135,0.9,4.5,73,0.00,,,0.01,WUHU216HW,2013-02-28 11:06:00,
2013-02-28 06:11:00,42.1,34.1,29.64,SW,225,0.4,2.0,73,0.00,,,0.01,WUHU216HW,2013-02-28 11:11:00,
2013-02-28 06:16:00,42.1,34.1,29.65,SW,225,1.1,2.0,73,0.00,,,0.01,WUHU216HW,2013-02-28 11:16:00,
2013-02-28 06:21:00,41.9,33.6,29.64,SSW,203,1.1,1.1,72,0.00,,,0.01,WUHU216HW,2013-02-28 11:21:00,
2013-02-28 06:26:00,41.9,33.9,29.64,ENE,68,0.2,1.1,73,0.00,,,0.01,WUHU216HW,2013-02-28 11:26:00,
2013-02-28 06:31:00,41.8,33.8,29.64,ESE,113,0.0,0.4,73,0.00,,,0.01,WUHU216HW,2013-02-28 11:31:00,
2013-02-28 06:36:00,41.8,33.4,29.65,ENE,68,0.0,0.4,72,0.00,,,0.01,WUHU216HW,2013-02-28 11:36:00,
2013-02-28 06:41:00,41.6,33.2,29.64,SSE,158,0.2,0.4,72,0.00,,,0.01,WUHU216HW,2013-02-28 11:41:00,
2013-02-28 06:46:00,41.6,33.2,29.64,South,180,0.4,0.4,72,0.00,,,0.01,WUHU216HW,2013-02-28 11:46:00,
2013-02-28 06:51:00,41.4,33.0,29.64,WSW,248,0.4,0.4,72,0.00,,,0.01,WUHU216HW,2013-02-28 11:51:00,
2013-02-28 06:56:00,41.4,32.8,29.65,East,90,0.9,1.3,71,0.00,,,0.01,WUHU216HW,2013-02-28 11:56:00,
2013-02-28 07:01:00,41.4,32.8,29.65,ESE,113,1.3,1.3,71,0.00,,,0.01,WUHU216HW,2013-02-28 12:01:00,
2013-02-28 07:06:00,41.6,32.6,29.65,SE,135,0.0,1.3,70,0.00,,,0.01,WUHU216HW,2013-02-28 12:06:00,
2013-02-28 07:11:00,41.6,32.2,29.65,SE,135,1.1,2.5,69,0.00,,,0.01,WUHU216HW,2013-02-28 12:11:00,
2013-02-28 07:17:00,41.6,32.6,29.65,ESE,113,0.2,2.5,70,0.00,,,0.01,WUHU216HW,2013-02-28 12:17:00,
2013-02-28 07:22:00,41.4,32.1,29.65,West,270,0.7,0.9,69,0.00,,,0.01,WUHU216HW,2013-02-28 12:22:00,
2013-02-28 07:27:00,41.4,32.1,29.66,SE,135,0.0,0.9,69,0.00,,,0.01,WUHU216HW,2013-02-28 12:27:00,
2013-02-28 07:32:00,41.4,32.1,29.66,SE,135,0.4,0.4,69,0.00,,,0.01,WUHU216HW,2013-02-28 12:32:00,
2013-02-28 07:37:00,41.2,31.5,29.66,SSE,158,0.4,1.6,68,0.00,,,0.01,WUHU216HW,2013-02-28 12:37:00,
2013-02-28 07:42:00,41.2,31.5,29.66,WSW,248,1.1,1.6,68,0.00,,,0.01,WUHU216HW,2013-02-28 12:42:00,
2013-02-28 07:47:00,41.0,31.3,29.66,WSW,248,0.0,1.1,68,0.00,,,0.01,WUHU216HW,2013-02-28 12:47:00,
2013-02-28 07:52:00,40.9,31.2,29.66,WSW,248,0.4,0.7,68,0.00,,,0.01,WUHU216HW,2013-02-28 12:52:00,
2013-02-28 07:57:00,40.9,30.7,29.66,ESE,113,1.1,1.1,67,0.00,,,0.01,WUHU216HW,2013-02-28 12:57:00,
2013-02-28 08:02:00,41.2,31.1,29.66,East,90,0.0,1.1,67,0.00,,,0.01,WUHU216HW,2013-02-28 13:02:00,
2013-02-28 08:07:00,41.4,31.2,29.66,SSE,158,1.1,1.3,67,0.00,,,0.01,WUHU216HW,2013-02-28 13:07:00,
2013-02-28 08:12:00,41.9,31.8,29.66,South,180,0.0,1.6,67,0.00,,,0.01,WUHU216HW,2013-02-28 13:12:00,
2013-02-28 08:17:00,42.1,32.0,29.66,East,90,0.4,1.6,67,0.00,,,0.01,WUHU216HW,2013-02-28 13:17:00,
2013-02-28 08:22:00,42.1,32.0,29.66,ESE,113,0.0,1.6,67,0.00,,,0.01,WUHU216HW,2013-02-28 13:22:00,
2013-02-28 08:27:00,42.3,31.8,29.66,NE,45,0.0,1.6,66,0.00,,,0.01,WUHU216HW,2013-02-28 13:27:00,
2013-02-28 08:32:00,42.8,32.7,29.66,SSW,203,0.4,1.1,67,0.00,,,0.01,WUHU216HW,2013-02-28 13:32:00,
2013-02-28 08:37:00,43.6,33.0,29.66,ESE,113,1.6,1.6,66,0.00,,,0.01,WUHU216HW,2013-02-28 13:37:00,
2013-02-28 08:42:00,44.1,33.0,29.66,SE,135,0.9,1.6,65,0.00,,,0.01,WUHU216HW,2013-02-28 13:42:00,
2013-02-28 08:47:00,44.5,33.4,29.66,SSE,158,0.2,1.6,65,0.00,,,0.01,WUHU216HW,2013-02-28 13:47:00,
2013-02-28 08:53:00,44.6,32.9,29.66,ESE,113,0.9,2.0,63,0.00,,,0.01,WUHU216HW,2013-02-28 13:53:00,
2013-02-28 08:58:00,45.0,33.1,29.66,WSW,248,1.1,2.0,63,0.00,,,0.01,WUHU216HW,2013-02-28 13:58:00,
2013-02-28 09:03:00,45.2,32.1,29.66,SE,135,2.0,2.2,60,0.00,,,0.01,WUHU216HW,2013-02-28 14:03:00,
2013-02-28 09:08:00,45.2,32.1,29.66,ESE,113,1.1,3.1,60,0.00,,,0.01,WUHU216HW,2013-02-28 14:08:00,
2013-02-28 09:13:00,45.4,31.9,29.66,South,180,1.3,3.1,59,0.00,,,0.01,WUHU216HW,2013-02-28 14:13:00,
2013-02-28 09:18:00,45.7,31.8,29.66,SSW,203,2.0,3.1,58,0.00,,,0.01,WUHU216HW,2013-02-28 14:18:00,
2013-02-28 09:23:00,46.1,31.6,29.66,SSE,158,1.1,2.7,57,0.00,,,0.01,WUHU216HW,2013-02-28 14:23:00,
2013-02-28 09:28:00,46.8,32.3,29.66,ESE,113,0.4,2.7,57,0.00,,,0.01,WUHU216HW,2013-02-28 14:28:00,
2013-02-28 09:33:00,47.3,33.3,29.66,WSW,248,0.4,1.8,58,0.00,,,0.01,WUHU216HW,2013-02-28 14:33:00,
2013-02-28 09:38:00,47.5,31.6,29.66,SE,135,2.2,3.1,54,0.00,,,0.01,WUHU216HW,2013-02-28 14:38:00,
2013-02-28 09:43:00,47.5,31.1,29.66,SE,135,0.4,3.1,53,0.00,,,0.01,WUHU216HW,2013-02-28 14:43:00,
2013-02-28 09:48:00,47.5,31.1,29.66,SE,135,0.4,0.4,53,0.00,,,0.01,WUHU216HW,2013-02-28 14:48:00,
2013-02-28 10:00:00,47.2,29.9,29.65,SSW,203,1.6,1.6,51,0.00,,,0.01,WUHU216HW,2013-02-28 15:00:00,
2013-02-28 10:05:00,47.2,29.9,29.65,ESE,113,0.4,1.6,51,0.00,,,0.01,WUHU216HW,2013-02-28 15:05:00,
2013-02-28 10:10:00,47.5,30.3,29.64,ENE,68,0.2,1.1,51,0.00,,,0.01,WUHU216HW,2013-02-28 15:10:00,
2013-02-28 10:15:00,47.9,30.6,29.65,ESE,113,0.9,2.0,51,0.00,,,0.01,WUHU216HW,2013-02-28 15:15:00,
2013-02-28 10:20:00,47.9,30.1,29.65,SSE,158,1.8,2.9,50,0.00,,,0.01,WUHU216HW,2013-02-28 15:20:00,
2013-02-28 10:25:00,47.9,30.1,29.64,ESE,113,3.6,3.6,50,0.00,,,0.01,WUHU216HW,2013-02-28 15:25:00,
2013-02-28 10:30:00,47.9,29.5,29.64,ESE,113,1.3,3.6,49,0.00,,,0.01,WUHU216HW,2013-02-28 15:30:00,
2013-02-28 10:35:00,48.2,30.4,29.64,ESE,113,0.9,1.6,50,0.00,,,0.01,WUHU216HW,2013-02-28 15:35:00,
2013-02-28 10:40:00,48.2,29.3,29.64,ESE,113,1.8,2.9,48,0.00,,,0.01,WUHU216HW,2013-02-28 15:40:00,
2013-02-28 10:45:00,48.2,29.9,29.64,SE,135,0.7,2.9,49,0.00,,,0.01,WUHU216HW,2013-02-28 15:45:00,
2013-02-28 10:50:00,48.6,30.3,29.64,ESE,113,2.2,3.4,49,0.00,,,0.01,WUHU216HW,2013-02-28 15:50:00,
2013-02-28 10:55:00,49.0,30.6,29.64,NE,45,1.6,3.4,49,0.00,,,0.01,WUHU216HW,2013-02-28 15:55:00,
2013-02-28 11:01:00,49.3,31.0,29.64,ENE,68,0.0,3.4,49,0.00,,,0.01,WUHU216HW,2013-02-28 16:01:00,
2013-02-28 11:06:00,49.7,28.5,29.63,West,270,0.4,0.7,44,0.00,,,0.01,WUHU216HW,2013-02-28 16:06:00,
2013-02-28 11:11:00,49.9,30.3,29.63,ENE,68,0.4,2.2,47,0.00,,,0.01,WUHU216HW,2013-02-28 16:11:00,
2013-02-28 11:16:00,49.7,28.0,29.63,NNE,23,2.2,2.2,43,0.00,,,0.01,WUHU216HW,2013-02-28 16:16:00,
2013-02-28 11:21:00,49.9,29.8,29.63,SW,225,2.2,2.2,46,0.00,,,0.01,WUHU216HW,2013-02-28 16:21:00,
2013-02-28 11:26:00,50.0,30.5,29.63,NNE,23,1.3,2.2,47,0.00,,,0.01,WUHU216HW,2013-02-28 16:26:00,
2013-02-28 11:31:00,50.2,30.2,29.63,NNE,23,2.2,2.2,46,0.00,,,0.01,WUHU216HW,2013-02-28 16:31:00,
2013-02-28 11:36:00,50.2,30.2,29.63,ESE,113,4.0,4.0,46,0.00,,,0.01,WUHU216HW,2013-02-28 16:36:00,
2013-02-28 11:41:00,50.4,30.3,29.63,SE,135,0.4,6.3,46,0.00,,,0.01,WUHU216HW,2013-02-28 16:41:00,
2013-02-28 11:46:00,50.8,29.5,29.63,SE,135,3.4,3.4,44,0.00,,,0.01,WUHU216HW,2013-02-28 16:46:00,
2013-02-28 11:51:00,50.6,29.9,29.63,NW,315,0.4,3.4,45,0.00,,,0.01,WUHU216HW,2013-02-28 16:51:00,
2013-02-28 11:56:00,50.6,29.3,29.63,ENE,68,3.6,3.8,44,0.00,,,0.01,WUHU216HW,2013-02-28 16:56:00,
2013-02-28 12:01:00,50.2,29.6,29.63,South,180,2.5,3.8,45,0.00,,,0.01,WUHU216HW,2013-02-28 17:01:00,
2013-02-28 12:06:00,49.5,28.9,29.63,ESE,113,1.1,3.6,45,0.00,,,0.01,WUHU216HW,2013-02-28 17:06:00,
2013-02-28 12:11:00,49.3,29.4,29.63,ENE,68,0.9,2.5,46,0.00,,,0.01,WUHU216HW,2013-02-28 17:11:00,
2013-02-28 12:17:00,49.0,29.0,29.63,ESE,113,0.2,3.4,46,0.00,,,0.01,WUHU216HW,2013-02-28 17:17:00,
2013-02-28 12:22:00,48.4,28.5,29.63,NE,45,1.6,3.4,46,0.00,,,0.01,WUHU216HW,2013-02-28 17:22:00,
2013-02-28 12:27:00,48.2,28.8,29.63,East,90,2.0,2.0,47,0.00,,,0.01,WUHU216HW,2013-02-28 17:27:00,
2013-02-28 12:32:00,48.1,28.6,29.63,ESE,113,0.7,2.0,47,0.00,,,0.01,WUHU216HW,2013-02-28 17:32:00,
2013-02-28 12:37:00,47.9,28.4,29.63,SE,135,2.7,2.7,47,0.00,,,0.01,WUHU216HW,2013-02-28 17:37:00,
2013-02-28 12:42:00,47.9,29.0,29.63,NW,315,1.6,2.7,48,0.00,,,0.01,WUHU216HW,2013-02-28 17:42:00,
2013-02-28 12:47:00,47.7,28.9,29.63,NNE,23,0.2,1.8,48,0.00,,,0.01,WUHU216HW,2013-02-28 17:47:00,
2013-02-28 12:52:00,47.7,28.9,29.63,WSW,248,1.1,1.8,48,0.00,,,0.01,WUHU216HW,2013-02-28 17:52:00,
2013-02-28 12:57:00,47.7,28.9,29.63,South,180,0.7,2.5,48,0.00,,,0.01,WUHU216HW,2013-02-28 17:57:00,
2013-02-28 13:02:00,47.7,29.4,29.63,ESE,113,0.9,2.5,49,0.00,,,0.01,WUHU216HW,2013-02-28 18:02:00,
2013-02-28 13:07:00,47.7,29.4,29.63,NE,45,1.1,2.0,49,0.00,,,0.01,WUHU216HW,2013-02-28 18:07:00,
2013-02-28 13:12:00,47.5,29.3,29.63,ENE,68,2.5,2.7,49,0.00,,,0.01,WUHU216HW,2013-02-28 18:12:00,
2013-02-28 13:17:00,47.9,30.1,29.62,ESE,113,0.4,2.7,50,0.00,,,0.01,WUHU216HW,2013-02-28 18:17:00,
2013-02-28 13:22:00,48.1,30.2,29.62,WSW,248,1.3,2.5,50,0.00,,,0.01,WUHU216HW,2013-02-28 18:22:00,
2013-02-28 13:27:00,48.2,30.4,29.62,NE,45,1.1,1.8,50,0.00,,,0.01,WUHU216HW,2013-02-28 18:27:00,
2013-02-28 13:33:00,48.1,29.7,29.62,East,90,2.5,2.5,49,0.00,,,0.01,WUHU216HW,2013-02-28 18:33:00,
2013-02-28 13:38:00,48.2,30.4,29.62,ESE,113,0.9,2.5,50,0.00,,,0.01,WUHU216HW,2013-02-28 18:38:00,
2013-02-28 13:43:00,48.4,30.1,29.62,South,180,0.7,2.5,49,0.00,,,0.01,WUHU216HW,2013-02-28 18:43:00,
2013-02-28 13:48:00,48.4,30.6,29.62,ENE,68,0.7,2.7,50,0.00,,,0.01,WUHU216HW,2013-02-28 18:48:00,
2013-02-28 13:53:00,47.9,30.1,29.62,East,90,1.8,2.7,50,0.00,,,0.01,WUHU216HW,2013-02-28 18:53:00,
2013-02-28 13:58:00,47.9,30.6,29.63,East,90,1.3,4.0,51,0.00,,,0.01,WUHU216HW,2013-02-28 18:58:00,
2013-02-28 14:03:00,47.9,31.1,29.62,SE,135,1.8,4.0,52,0.00,,,0.01,WUHU216HW,2013-02-28 19:03:00,
2013-02-28 14:08:00,47.9,31.5,29.63,ESE,113,2.5,4.0,53,0.00,,,0.01,WUHU216HW,2013-02-28 19:08:00,
2013-02-28 14:13:00,47.5,31.6,29.63,SSE,158,4.0,4.0,54,0.00,,,0.01,WUHU216HW,2013-02-28 19:13:00,
2013-02-28 14:18:00,47.2,31.8,29.63,ENE,68,3.4,4.0,55,0.00,,,0.01,WUHU216HW,2013-02-28 19:18:00,
2013-02-28 14:23:00,47.2,32.2,29.63,ESE,113,1.6,3.8,56,0.00,,,0.01,WUHU216HW,2013-02-28 19:23:00,
2013-02-28 14:28:00,47.5,32.6,29.63,ESE,113,1.1,3.4,56,0.00,,,0.01,WUHU216HW,2013-02-28 19:28:00,
2013-02-28 14:33:00,47.9,32.9,29.63,ENE,68,7.6,7.6,56,0.00,,,0.01,WUHU216HW,2013-02-28 19:33:00,
2013-02-28 14:38:00,47.9,32.0,29.63,NNW,338,1.1,9.2,54,0.00,,,0.01,WUHU216HW,2013-02-28 19:38:00,
2013-02-28 14:40:00,47.9,32.0,29.63,SE,135,1.8,1.8,54,0.00,,,0.01,WUHU216HW,2013-02-28 19:40:00,
2013-02-28 14:43:00,47.9,32.0,29.63,SE,135,1.8,9.2,54,0.00,,,0.01,WUHU216HW,2013-02-28 19:43:00,
2013-02-28 14:48:00,47.9,32.0,29.63,SE,135,1.8,1.8,54,0.00,,,0.01,WUHU216HW,2013-02-28 19:48:00,
2013-02-28 15:00:00,47.5,31.6,29.63,North,0,1.1,1.1,54,0.00,,,0.01,WUHU216HW,2013-02-28 20:00:00,
2013-02-28 15:05:00,47.2,31.3,29.63,ENE,68,2.5,2.5,54,0.00,,,0.01,WUHU216HW,2013-02-28 20:05:00,
2013-02-28 15:10:00,47.3,31.4,29.63,ENE,68,1.8,4.7,54,0.00,,,0.01,WUHU216HW,2013-02-28 20:10:00,
2013-02-28 15:15:00,47.5,31.6,29.63,ENE,68,2.5,4.7,54,0.00,,,0.01,WUHU216HW,2013-02-28 20:15:00,
2013-02-28 15:20:00,47.7,31.8,29.63,East,90,1.8,3.4,54,0.00,,,0.01,WUHU216HW,2013-02-28 20:20:00,
2013-02-28 15:25:00,47.3,30.5,29.63,ESE,113,5.4,5.4,52,0.00,,,0.01,WUHU216HW,2013-02-28 20:25:00,
2013-02-28 15:30:00,47.2,30.8,29.63,ENE,68,1.8,5.4,53,0.00,,,0.01,WUHU216HW,2013-02-28 20:30:00,
2013-02-28 15:35:00,47.3,31.0,29.63,WSW,248,0.4,2.5,53,0.00,,,0.01,WUHU216HW,2013-02-28 20:35:00,
2013-02-28 15:40:00,47.3,31.0,29.63,WSW,248,1.1,2.5,53,0.00,,,0.01,WUHU216HW,2013-02-28 20:40:00,
2013-02-28 15:45:00,47.5,31.1,29.63,West,270,2.5,4.0,53,0.00,,,0.01,WUHU216HW,2013-02-28 20:45:00,
2013-02-28 15:50:00,47.7,30.9,29.63,North,0,0.0,4.0,52,0.00,,,0.01,WUHU216HW,2013-02-28 20:50:00,
2013-02-28 15:55:00,47.2,30.8,29.63,ENE,68,0.7,3.4,53,0.00,,,0.01,WUHU216HW,2013-02-28 20:55:00,
2013-02-28 16:00:00,46.8,30.5,29.63,ENE,68,2.9,2.9,53,0.00,,,0.01,WUHU216HW,2013-02-28 21:00:00,
2013-02-28 16:05:00,46.4,30.2,29.63,ESE,113,3.1,3.1,53,0.00,,,0.01,WUHU216HW,2013-02-28 21:05:00,
2013-02-28 16:10:00,46.6,30.3,29.63,ESE,113,1.1,3.1,53,0.00,,,0.01,WUHU216HW,2013-02-28 21:10:00,
2013-02-28 16:16:00,46.4,30.2,29.63,SE,135,2.0,2.9,53,0.00,,,0.01,WUHU216HW,2013-02-28 21:16:00,
2013-02-28 16:21:00,46.3,30.0,29.63,SE,135,0.9,2.9,53,0.00,,,0.01,WUHU216HW,2013-02-28 21:21:00,
2013-02-28 16:26:00,46.3,30.4,29.63,East,90,0.4,2.7,54,0.00,,,0.01,WUHU216HW,2013-02-28 21:26:00,
2013-02-28 16:31:00,46.1,30.2,29.63,SE,135,1.1,1.6,54,0.00,,,0.01,WUHU216HW,2013-02-28 21:31:00,
2013-02-28 16:36:00,45.9,30.2,29.63,ENE,68,0.4,2.5,54,0.00,,,0.01,WUHU216HW,2013-02-28 21:36:00,
2013-02-28 16:41:00,45.7,30.4,29.63,SSE,158,2.2,2.5,55,0.00,,,0.01,WUHU216HW,2013-02-28 21:41:00,
2013-02-28 16:46:00,45.7,30.4,29.63,ENE,68,0.0,2.2,55,0.00,,,0.01,WUHU216HW,2013-02-28 21:46:00,
2013-02-28 16:51:00,45.9,30.2,29.63,ESE,113,1.6,2.0,54,0.00,,,0.01,WUHU216HW,2013-02-28 21:51:00,
2013-02-28 16:56:00,45.7,30.0,29.63,ENE,68,0.9,2.5,54,0.00,,,0.01,WUHU216HW,2013-02-28 21:56:00,
2013-02-28 17:01:00,45.7,30.0,29.63,NE,45,1.3,2.5,54,0.00,,,0.01,WUHU216HW,2013-02-28 22:01:00,
2013-02-28 17:06:00,45.7,30.0,29.63,WNW,293,2.2,2.2,54,0.00,,,0.01,WUHU216HW,2013-02-28 22:06:00,
2013-02-28 17:11:00,45.5,29.8,29.63,NNE,23,2.5,2.7,54,0.00,,,0.01,WUHU216HW,2013-02-28 22:11:00,
2013-02-28 17:16:00,45.4,29.6,29.63,SE,135,1.8,2.7,54,0.00,,,0.01,WUHU216HW,2013-02-28 22:16:00,
2013-02-28 17:21:00,45.2,29.4,29.64,ESE,113,0.4,2.9,54,0.00,,,0.01,WUHU216HW,2013-02-28 22:21:00,
2013-02-28 17:26:00,45.0,29.4,29.64,SE,135,0.7,2.9,54,0.00,,,0.01,WUHU216HW,2013-02-28 22:26:00,
2013-02-28 17:31:00,45.0,29.8,29.64,ESE,113,1.3,2.0,55,0.00,,,0.01,WUHU216HW,2013-02-28 22:31:00,
2013-02-28 17:36:00,45.0,29.8,29.65,NNE,23,1.1,4.0,55,0.00,,,0.01,WUHU216HW,2013-02-28 22:36:00,
2013-02-28 17:41:00,45.0,29.8,29.65,East,90,0.7,4.0,55,0.00,,,0.01,WUHU216HW,2013-02-28 22:41:00,
2013-02-28 17:46:00,44.8,29.6,29.65,ENE,68,0.0,2.7,55,0.00,,,0.01,WUHU216HW,2013-02-28 22:46:00,
2013-02-28 17:51:00,44.8,29.2,29.65,WSW,248,1.3,2.7,54,0.00,,,0.01,WUHU216HW,2013-02-28 22:51:00,
2013-02-28 17:56:00,44.6,29.0,29.65,SE,135,1.6,2.2,54,0.00,,,0.01,WUHU216HW,2013-02-28 22:56:00,
2013-02-28 18:01:00,44.6,29.0,29.66,SSE,158,2.5,3.6,54,0.00,,,0.01,WUHU216HW,2013-02-28 23:01:00,
2013-02-28 18:06:00,44.5,28.4,29.66,East,90,0.4,3.8,53,0.00,,,0.01,WUHU216HW,2013-02-28 23:06:00,
2013-02-28 18:11:00,44.3,28.6,29.66,South,180,0.4,3.8,54,0.00,,,0.01,WUHU216HW,2013-02-28 23:11:00,
2013-02-28 18:16:00,44.1,28.4,29.66,East,90,1.1,4.5,54,0.00,,,0.01,WUHU216HW,2013-02-28 23:16:00,
2013-02-28 18:22:00,43.9,28.3,29.66,South,180,2.0,4.5,54,0.00,,,0.01,WUHU216HW,2013-02-28 23:22:00,
2013-02-28 18:27:00,43.9,28.3,29.67,SE,135,0.4,3.8,54,0.00,,,0.01,WUHU216HW,2013-02-28 23:27:00,
2013-02-28 18:31:00,43.7,28.2,29.67,SW,225,1.1,2.9,54,0.00,,,0.01,WUHU216HW,2013-02-28 23:31:00,
2013-02-28 18:36:00,43.7,28.2,29.67,SW,225,1.1,2.9,54,0.00,,,0.01,WUHU216HW,2013-02-28 23:36:00,
2013-02-28 19:00:00,43.0,28.4,29.68,ESE,113,1.6,1.6,56,0.00,,,0.01,WUHU216HW,2013-03-01 00:00:00,
2013-02-28 19:05:00,42.8,28.2,29.68,ESE,113,4.0,4.0,56,0.00,,,0.01,WUHU216HW,2013-03-01 00:05:00,
2013-02-28 19:10:00,42.8,28.6,29.68,ESE,113,1.8,4.0,57,0.00,,,0.01,WUHU216HW,2013-03-01 00:10:00,
2013-02-28 19:15:00,42.8,28.6,29.69,ESE,113,1.3,2.9,57,0.00,,,0.01,WUHU216HW,2013-03-01 00:15:00,
2013-02-28 19:20:00,42.8,28.6,29.69,WSW,248,0.9,1.3,57,0.00,,,0.01,WUHU216HW,2013-03-01 00:20:00,
2013-02-28 19:25:00,42.8,28.6,29.69,SE,135,0.7,1.1,57,0.00,,,0.01,WUHU216HW,2013-03-01 00:25:00,
2013-02-28 19:30:00,42.8,28.6,29.69,SW,225,0.4,1.1,57,0.00,,,0.01,WUHU216HW,2013-03-01 00:30:00,
2013-02-28 19:35:00,42.8,28.6,29.69,SE,135,0.2,1.1,57,0.00,,,0.01,WUHU216HW,2013-03-01 00:35:00,
2013-02-28 19:40:00,42.8,29.0,29.69,ESE,113,0.4,2.2,58,0.00,,,0.01,WUHU216HW,2013-03-01 00:40:00,
2013-02-28 19:45:00,42.8,29.0,29.69,SE,135,2.2,2.2,58,0.00,,,0.01,WUHU216HW,2013-03-01 00:45:00,
2013-02-28 19:50:00,42.8,29.0,29.70,ENE,68,1.1,2.2,58,0.00,,,0.01,WUHU216HW,2013-03-01 00:50:00,
2013-02-28 19:55:00,42.8,29.0,29.70,ENE,68,2.0,2.2,58,0.00,,,0.01,WUHU216HW,2013-03-01 00:55:00,
2013-02-28 20:00:00,43.0,29.2,29.70,WSW,248,0.9,2.2,58,0.00,,,0.01,WUHU216HW,2013-03-01 01:00:00,
2013-02-28 20:05:00,43.0,28.8,29.70,ESE,113,1.1,2.5,57,0.00,,,0.01,WUHU216HW,2013-03-01 01:05:00,
2013-02-28 20:11:00,43.0,28.8,29.70,East,90,0.2,2.5,57,0.00,,,0.01,WUHU216HW,2013-03-01 01:11:00,
2013-02-28 20:16:00,42.8,29.0,29.70,East,90,0.4,0.7,58,0.00,,,0.01,WUHU216HW,2013-03-01 01:16:00,
2013-02-28 20:21:00,42.8,29.0,29.70,South,180,0.7,1.1,58,0.00,,,0.01,WUHU216HW,2013-03-01 01:21:00,
2013-02-28 20:26:00,42.8,29.0,29.71,SE,135,1.6,4.0,58,0.00,,,0.01,WUHU216HW,2013-03-01 01:26:00,
2013-02-28 20:31:00,42.8,29.0,29.71,NNE,23,2.7,4.0,58,0.00,,,0.01,WUHU216HW,2013-03-01 01:31:00,
2013-02-28 20:36:00,42.8,29.0,29.71,East,90,0.4,2.7,58,0.00,,,0.01,WUHU216HW,2013-03-01 01:36:00,
2013-02-28 20:41:00,42.8,29.0,29.71,SW,225,0.2,2.2,58,0.00,,,0.01,WUHU216HW,2013-03-01 01:41:00,
2013-02-28 20:46:00,42.8,29.0,29.71,SSE,158,0.9,2.2,58,0.00,,,0.01,WUHU216HW,2013-03-01 01:46:00,
2013-02-28 20:51:00,42.8,29.0,29.71,East,90,0.0,2.7,58,0.00,,,0.01,WUHU216HW,2013-03-01 01:51:00,
2013-02-28 20:56:00,42.8,29.0,29.71,NE,45,0.2,2.7,58,0.00,,,0.01,WUHU216HW,2013-03-01 01:56:00,
2013-02-28 21:01:00,42.8,29.0,29.71,SSE,158,0.0,1.8,58,0.00,,,0.01,WUHU216HW,2013-03-01 02:01:00,
2013-02-28 21:06:00,42.8,29.0,29.71,ESE,113,1.8,1.8,58,0.00,,,0.01,WUHU216HW,2013-03-01 02:06:00,
2013-02-28 21:12:00,42.8,29.0,29.71,SE,135,0.0,1.8,58,0.00,,,0.01,WUHU216HW,2013-03-01 02:12:00,
2013-02-28 21:17:00,42.7,28.9,29.71,ESE,113,0.4,1.8,58,0.00,,,0.01,WUHU216HW,2013-03-01 02:17:00,
2013-02-28 21:22:00,42.7,29.3,29.71,ENE,68,1.8,3.8,59,0.00,,,0.01,WUHU216HW,2013-03-01 02:22:00,
2013-02-28 21:27:00,42.7,29.3,29.71,SSW,203,0.4,3.8,59,0.00,,,0.01,WUHU216HW,2013-03-01 02:27:00,
2013-02-28 21:32:00,42.7,29.3,29.71,ENE,68,0.4,0.9,59,0.00,,,0.01,WUHU216HW,2013-03-01 02:32:00,
2013-02-28 21:37:00,42.7,29.3,29.71,ENE,68,0.2,2.2,59,0.00,,,0.01,WUHU216HW,2013-03-01 02:37:00,
2013-02-28 21:42:00,42.5,29.2,29.71,ENE,68,1.8,2.2,59,0.00,,,0.01,WUHU216HW,2013-03-01 02:42:00,
2013-02-28 21:47:00,42.7,29.3,29.71,East,90,0.4,2.5,59,0.00,,,0.01,WUHU216HW,2013-03-01 02:47:00,
2013-02-28 21:52:00,42.5,29.2,29.71,SSE,158,2.0,2.5,59,0.00,,,0.01,WUHU216HW,2013-03-01 02:52:00,
2013-02-28 21:57:00,42.7,29.7,29.71,SSW,203,1.1,2.0,60,0.00,,,0.01,WUHU216HW,2013-03-01 02:57:00,
2013-02-28 22:02:00,42.5,29.5,29.71,East,90,0.0,1.1,60,0.00,,,0.01,WUHU216HW,2013-03-01 03:02:00,
2013-02-28 22:08:00,42.5,29.5,29.71,SSE,158,0.0,1.1,60,0.00,,,0.01,WUHU216HW,2013-03-01 03:08:00,
2013-02-28 22:13:00,42.5,29.5,29.71,East,90,0.7,1.1,60,0.00,,,0.01,WUHU216HW,2013-03-01 03:13:00,
2013-02-28 22:18:00,42.5,29.5,29.71,SSE,158,0.4,0.9,60,0.00,,,0.01,WUHU216HW,2013-03-01 03:18:00,
2013-02-28 22:23:00,42.5,29.5,29.71,ESE,113,0.4,2.5,60,0.00,,,0.01,WUHU216HW,2013-03-01 03:23:00,
2013-02-28 22:28:00,42.5,29.5,29.71,South,180,1.1,2.5,60,0.00,,,0.01,WUHU216HW,2013-03-01 03:28:00,
2013-02-28 22:33:00,42.5,29.5,29.71,SW,225,0.0,3.4,60,0.00,,,0.01,WUHU216HW,2013-03-01 03:33:00,
2013-02-28 22:38:00,42.5,29.5,29.71,ESE,113,0.0,3.4,60,0.00,,,0.01,WUHU216HW,2013-03-01 03:38:00,
2013-02-28 22:43:00,42.3,29.8,29.70,East,90,0.7,1.3,61,0.00,,,0.01,WUHU216HW,2013-03-01 03:43:00,
2013-02-28 22:48:00,42.3,29.8,29.71,NNE,23,2.5,2.5,61,0.00,,,0.01,WUHU216HW,2013-03-01 03:48:00,
2013-02-28 22:53:00,42.3,29.8,29.71,ESE,113,0.9,2.5,61,0.00,,,0.01,WUHU216HW,2013-03-01 03:53:00,
2013-02-28 22:58:00,42.3,29.8,29.70,NE,45,1.1,1.8,61,0.00,,,0.01,WUHU216HW,2013-03-01 03:58:00,
2013-02-28 23:03:00,42.5,30.0,29.70,South,180,0.9,2.2,61,0.00,,,0.01,WUHU216HW,2013-03-01 04:03:00,
2013-02-28 23:08:00,42.5,30.0,29.71,NW,315,0.4,2.5,61,0.00,,,0.01,WUHU216HW,2013-03-01 04:08:00,
2013-02-28 23:13:00,42.5,30.0,29.70,SW,225,0.7,2.5,61,0.00,,,0.01,WUHU216HW,2013-03-01 04:13:00,
2013-02-28 23:18:00,42.5,30.0,29.70,ENE,68,1.3,1.6,61,0.00,,,0.01,WUHU216HW,2013-03-01 04:18:00,
2013-02-28 23:23:00,42.5,30.3,29.71,East,90,2.2,2.5,62,0.00,,,0.01,WUHU216HW,2013-03-01 04:23:00,
2013-02-28 23:27:00,42.5,30.3,29.70,South,180,0.4,0.4,62,0.00,,,0.01,WUHU216HW,2013-03-01 04:27:00,
2013-02-28 23:28:00,42.5,30.3,29.70,South,180,0.4,2.5,62,0.00,,,0.01,WUHU216HW,2013-03-01 04:28:00,
2013-02-28 23:33:00,42.5,30.3,29.70,South,180,0.4,1.1,62,0.00,,,0.01,WUHU216HW,2013-03-01 04:33:00,
2013-02-28 23:57:00,42.3,30.6,29.70,SSE,158,0.9,0.9,63,0.00,,,0.01,WUHU216HW,2013-03-01 04:57:00,